FW2895 Weather Reports


time (UTC)temp
C
wind
direction
speed
KPH
gust
KPH
rain 1hr
cm
rain 24hr
cm
rain mn
cm
humidity
%
barometer
mb
20260506025429 20 339 4.8 9.7 0.00 0.00 0.00 73 1011.4
20260506024429 20 12 1.6 3.2 0.00 0.00 0.00 71 1011.2
20260506023428 20 323 3.2 4.8 0.00 0.00 0.00 71 1010.9
20260506022428 20 353 3.2 8.0 0.00 0.00 0.00 70 1010.4
20260506021428 21 342 3.2 11.3 0.00 0.00 0.00 70 1010.3
20260506020428 21 336 3.2 6.4 0.00 0.00 0.00 69 1009.8
20260506015427 22 293 1.6 4.8 0.00 0.00 0.00 68 1009.6
20260506014430 22 322 1.6 4.8 0.00 0.00 0.00 67 1009.8
20260506013430 22 270 0.0 1.6 0.00 0.00 0.00 67 1009.7
20260506012430 22 9 3.2 6.4 0.00 0.00 0.00 67 1009.3
20260506012327 22 309 3.2 6.4 0.00 0.00 0.00 67 1009.2
20260506011328 22 300 0.0 1.6 0.00 0.00 0.00 65 1009.2
20260506010427 22 352 4.8 8.0 0.00 0.00 0.00 65 1008.9
20260506005429 22 288 3.2 9.7 0.00 0.00 0.00 64 1009.1
20260506004429 23 16 3.2 9.7 0.00 0.00 0.00 64 1008.6
20260506003428 23 352 4.8 8.0 0.00 0.00 0.00 63 1008.6
20260506002528 23 45 3.2 8.0 0.00 0.00 0.00 63 1008.7
20260506001527 24 5 6.4 11.3 0.00 0.00 0.00 62 1008.1
20260506001430 25 341 4.8 12.9 0.00 0.00 0.00 62 1008.2
20260505235427 25 309 9.7 17.7 0.00 0.00 0.00 58 1007.7
20260505235331 25 305 6.4 11.3 0.00 0.00 0.00 58 1007.6
20260505233428 26 311 1.6 8.0 0.00 0.00 0.00 56 1007.8
20260505231429 28 330 8.0 12.9 0.00 0.00 0.00 50 1007.1
20260505230429 29 309 11.3 19.3 0.00 0.00 0.00 47 1007.2
20260505225428 30 323 3.2 9.7 0.00 0.00 0.00 44 1006.7
20260505224429 30 306 8.0 19.3 0.00 0.00 0.00 43 1006.6
20260505223430 31 334 9.7 19.3 0.00 0.00 0.00 43 1006.6
20260505222428 32 295 3.2 8.0 0.00 0.00 0.00 46 1006.3
20260505221430 32 247 1.6 1.6 0.00 0.00 0.00 46 1006.2
20260505221328 32 271 1.6 3.2 0.00 0.00 0.00 46 1006.1
20260505215330 33 185 1.6 4.8 0.00 0.00 0.00 45 1006.5
20260505214332 33 220 1.6 6.4 0.00 0.00 0.00 46 1006.4
20260505213427 32 192 1.6 3.2 0.00 0.00 0.00 46 1006.3
20260505212430 32 222 1.6 4.8 0.00 0.00 0.00 48 1006.5
20260505210429 32 241 3.2 9.7 0.00 0.00 0.00 48 1006.8
20260505205429 32 216 6.4 11.3 0.00 0.00 0.00 50 1006.7
20260505204429 32 214 6.4 14.5 0.00 0.00 0.00 50 1006.8
20260505203527 31 236 4.8 11.3 0.00 0.00 0.00 50 1007.2
20260505202528 32 211 3.2 4.8 0.00 0.00 0.00 51 1007.4
20260505201528 31 219 4.8 11.3 0.00 0.00 0.00 51 1007.3
20260505201428 31 207 4.8 12.9 0.00 0.00 0.00 51 1007.3
20260505200527 31 227 6.4 12.9 0.00 0.00 0.00 52 1007.2
20260505195530 31 185 3.2 9.7 0.00 0.00 0.00 53 1007.4
20260505194627 31 192 8.0 19.3 0.00 0.00 0.00 54 1007.5
20260505193626 30 223 6.4 16.1 0.00 0.00 0.00 55 1007.5
20260505192631 30 236 4.8 8.0 0.00 0.00 0.00 57 1007.5
20260505191629 29 212 6.4 16.1 0.00 0.00 0.00 57 1007.4
20260505190727 29 205 4.8 9.7 0.00 0.00 0.00 58 1007.5
20260505184727 28 223 6.4 12.9 0.00 0.00 0.00 59 1007.8
20260505183731 28 205 6.4 11.3 0.00 0.00 0.00 59 1007.8
20260505182728 28 234 6.4 12.9 0.00 0.00 0.00 59 1007.7
20260505182627 28 201 4.8 11.3 0.00 0.00 0.00 59 1007.6
20260505181628 28 219 8.0 14.5 0.00 0.00 0.00 59 1007.7
20260505180727 28 223 8.0 12.9 0.00 0.00 0.00 61 1007.8
20260505175727 28 204 3.2 8.0 0.00 0.00 0.00 61 1007.8
20260505174729 28 195 4.8 8.0 0.00 0.00 0.00 61 1007.7
20260505173827 28 201 6.4 11.3 0.00 0.00 0.00 64 1007.8
20260505172927 28 215 11.3 20.9 0.00 0.00 0.00 63 1007.8
20260505171929 27 195 3.2 6.4 0.00 0.00 0.00 66 1007.9
20260505171028 27 195 4.8 9.7 0.00 0.00 0.00 66 1008.1
20260505170126 26 190 6.4 12.9 0.00 0.00 0.00 68 1008.0
20260505165127 26 185 6.4 12.9 0.00 0.00 0.00 67 1008.1
20260505164127 26 192 8.0 19.3 0.00 0.00 0.00 68 1007.9
20260505163129 26 174 8.0 12.9 0.00 0.00 0.00 70 1007.8
20260505162128 26 213 6.4 9.7 0.00 0.00 0.00 71 1007.8
20260505161127 25 204 9.7 17.7 0.00 0.00 0.00 71 1007.9
20260505160128 25 180 6.4 17.7 0.00 0.00 0.00 71 1007.9
20260505153229 25 192 3.2 6.4 0.00 0.00 0.00 74 1007.8
20260505152228 24 178 4.8 12.9 0.00 0.00 0.00 75 1007.8
20260505151231 24 195 8.0 12.9 0.00 0.00 0.00 77 1007.8
20260505150227 23 185 8.0 14.5 0.00 0.00 0.00 78 1007.8
20260505130227 21 194 4.8 9.7 0.00 0.00 0.00 86 1007.8
20260505124231 21 197 4.8 11.3 0.00 0.00 0.00 85 1007.5
20260505123228 21 190 11.3 19.3 0.00 0.00 0.00 86 1007.4
20260505115327 21 195 4.8 12.9 0.00 0.00 0.00 85 1007.1
20260505114426 21 193 8.0 16.1 0.00 0.00 0.00 86 1007.0
20260505112526 21 183 4.8 9.7 0.00 0.00 0.00 84 1006.8
20260505112426 21 181 6.4 22.5 0.00 0.00 0.00 85 1006.9
20260505111428 21 171 6.4 17.7 0.00 0.00 0.00 84 1006.7
20260505101427 21 179 9.7 17.7 0.00 0.00 0.00 84 1006.8
20260505101330 21 180 8.0 19.3 0.00 0.00 0.00 83 1007.0
20260505100425 21 183 4.8 11.3 0.00 0.00 0.00 83 1006.9
20260505095426 21 192 4.8 19.3 0.00 0.00 0.00 83 1007.0
20260505094427 21 202 6.4 11.3 0.00 0.00 0.00 82 1007.2
20260505094328 21 216 9.7 16.1 0.00 0.00 0.00 82 1007.2
20260505093327 21 202 8.0 22.5 0.00 0.00 0.00 82 1007.0
20260505090327 21 193 3.2 6.4 0.00 0.00 0.00 83 1007.3
20260505085327 21 192 11.3 22.5 0.00 0.00 0.00 82 1007.4
20260505082329 21 181 6.4 11.3 0.00 0.00 0.00 81 1007.2
20260505081327 22 194 8.0 11.3 0.00 0.00 0.00 81 1007.4
20260505080327 22 182 9.7 16.1 0.00 0.00 0.00 80 1007.3
20260505075328 22 175 11.3 20.9 0.00 0.00 0.00 80 1007.4
20260505073427 22 180 9.7 17.7 0.00 0.00 0.00 79 1007.8
20260505072427 22 178 6.4 17.7 0.00 0.00 0.00 77 1008.0
20260505071525 22 209 8.0 16.1 0.00 0.00 0.00 77 1008.1
20260505065626 22 178 8.0 17.7 0.00 0.00 0.00 76 1008.5
20260505064627 22 191 6.4 14.5 0.00 0.00 0.00 75 1008.6
20260505063626 22 186 6.4 14.5 0.00 0.00 0.00 75 1008.7
20260505061627 22 195 8.0 17.7 0.00 0.00 0.00 74 1008.7
20260505060725 22 186 4.8 8.0 0.00 0.00 0.00 72 1008.7
20260505055727 22 178 8.0 16.1 0.00 0.00 0.00 73 1008.7
20260505054728 23 174 8.0 12.9 0.00 0.00 0.00 72 1008.8
20260505053728 23 183 8.0 17.7 0.00 0.00 0.00 72 1008.7
20260505051728 23 183 4.8 11.3 0.00 0.00 0.00 70 1008.9
20260505050727 23 177 6.4 11.3 0.00 0.00 0.00 69 1009.0
20260505040931 23 177 6.4 11.3 0.00 0.00 0.00 68 1009.1
20260505035030 23 177 8.0 17.7 0.00 0.00 0.00 67 1009.2
20260505034031 23 181 4.8 9.7 0.00 0.00 0.00 67 1009.1
20260505033031 23 157 11.3 19.3 0.00 0.00 0.00 67 1009.0
20260505032129 23 162 4.8 11.3 0.00 0.00 0.00 67 1009.2
20260505031131 23 165 6.4 16.1 0.00 0.00 0.00 67 1009.2